Location: Albuquerque Trailhead
(34.7934°N, 106.3736°W)
Time: 05:42:11
(UTC+00:00)

Resurs 1-4 Rocket - Pass Details

Date: 20 June 2021
Orbit: 800 x 813 km, 98.6° (Epoch: 29 July)

Event Time Altitude Azimuth Distance (km) Brightness Sun altitude
Rises 08:01:37 0° 21° (NNE) 3,339 6.5 -30.4°
Reaches altitude 10° 08:04:06 10° 29° (NNE) 2,404 5.4 -30.2°
Enters shadow 08:08:41 41° 86° (E) 1,172 3.0 -30.0°
